www.pogodaiklimat.ru

Погода и климат >> Архив погоды >> Япония >> Тёси


ПОГОДА в Тёси

  • Прогноз погоды в Тёси
  • Монитор погоды в Тёси

АРХИВ ПОГОДЫ в Тёси

Время (UTC), дата Ветер
(напр.,м/с)
 
Видим.   Явления Облачность Т
(С)
Тd
(С)
f
(%)
Тe
(С)
Тes
(С)
Комфортность P
(гПа)
Po
(гПа)
Тmin
(С)
Tmax
(С)
R
(мм)
R24
(мм)
S
(см)
10 18.06 Ю 7 20 км н/о +22.6 +18.6 78 +28 +28 душно 1010.7 1007.5
11 18.06 Ю 7 20 км н/о +22.0 +19.4 85 +27 +27 душно 1010.7 1007.4
12 18.06 Ю 6 20 км н/о +21.9 +19.5 86 +27 +27 душно 1011.1 1007.8 +25.1
13 18.06 Ю 4 20 км н/о +21.6 +19.2 86 +27 +27 душно 1011.1 1007.8
14 18.06 ЮЗ 3 20 км н/о +20.8 +18.9 89 +25 +25 комфорт 1011.2 1007.9
15 18.06 Ю 4 20 км н/о +20.8 +18.9 89 +25 +25 комфорт 1010.6 1007.3
16 18.06 Ю 4 20 км н/о +20.6 +18.9 90 +25 +25 комфорт 1010.0 1006.7
17 18.06 Ю 3 16 км н/о +20.2 +18.7 91 +24 +24 комфорт 1009.6 1006.3
18 18.06 Ю 3 16 км н/о +19.9 +18.7 93 +23 +23 комфорт 1009.5 1006.2
19 18.06 Ю 3 17 км н/о +19.7 +18.5 93 +23 +23 комфорт 1009.6 1006.3
20 18.06 Ю 3 20 км н/о +19.8 +18.3 91 +23 +23 комфорт 1009.6 1006.3
21 18.06 Ю 3 20 км н/о +20.8 +18.4 86 +25 +25 комфорт 1009.4 1006.1
22 18.06 Ю 3 20 км н/о +22.1 +18.7 81 +27 +27 душно 1009.1 1005.9
23 18.06 Ю 4 20 км н/о +23.4 +18.5 74 +30 +30 очень
душно
1008.8 1005.6
00 19.06 Ю 6 20 км н/о +24.4 +17.9 67 +29 +29 душно 1008.7 1005.5 +19.5
01 19.06 ЮЗ 5 20 км н/о +24.4 +18.1 68 +29 +29 душно 1008.3 1005.1
02 19.06 Ю 7 20 км н/о +24.5 +18.0 67 +29 +29 душно 1007.8 1004.6
03 19.06 Ю 6 20 км н/о +26.2 +19.1 65 +31 +31 очень
душно
1007.1 1003.9
04 19.06 Ю 7 20 км н/о +26.0 +18.7 64 +31 +31 очень
душно
1006.2 1003.0
05 19.06 Ю 8 20 км н/о +25.8 +19.2 67 +31 +31 очень
душно
1005.9 1002.7
06 19.06 Ю 8 20 км н/о +25.6 +19.7 70 +31 +31 очень
душно
1005.4 1002.2
07 19.06 Ю 7 20 км н/о +24.9 +19.7 73 +30 +30 душно 1005.2 1002.0
08 19.06 Ю 7 20 км н/о +24.6 +20.1 76 +30 +30 очень
душно
1005.2 1002.0
09 19.06 Ю 7 20 км н/о +23.6 +20.2 81 +29 +29 душно 1005.4 1002.2
10 19.06 Ю 7 15 км н/о +22.6 +20.2 86 +29 +29 очень
душно
1005.4 1002.2
11 19.06 Ю 7 15 км н/о +22.4 +20.1 87 +29 +29 очень
душно
1005.9 1002.7
12 19.06 ЮЗ 5 14 км н/о +22.3 +20.4 89 +29 +29 очень
душно
1006.7 1003.5 +26.5
13 19.06 ЮЗ 5 11 км н/о +21.8 +20.5 92 +28 +28 душно 1006.3 1003.1
14 19.06 Ю 5 13 км н/о +21.9 +20.2 90 +28 +28 душно 1006.0 1002.8
15 19.06 ЮЗ 3 12 км н/о +21.6 +20.1 91 +27 +27 душно 1005.6 1002.4
16 19.06 СЗ 1 8000 м дымка н/о +20.9 +19.9 94 +27 +27 душно 1005.2 1002.0
17 19.06 СЗ 2 3800 м дымка н/о +19.5 +19.2 98 +23 +23 комфорт 1005.0 1001.7
18 19.06 С 2 3400 м дымка н/о +19.9 +19.6 98 +24 +24 комфорт 1004.9 1001.6
19 19.06 СЗ 3 1000 м дымка н/о +19.0 +18.8 99 +21 +21 комфорт 1004.8 1001.5
20 19.06 С 4 100 м туман н/о +19.5 +19.5 100 +22 +22 комфорт 1005.0 1001.7
21 19.06 С 4 2400 м в посл. час туман н/о +19.9 +19.9 100 +23 +23 комфорт 1005.3 1002.0
22 19.06 СВ 5 6000 м дымка н/о +20.5 +19.9 96 +25 +25 комфорт 1005.5 1002.2
23 19.06 С 4 7000 м дымка н/о +21.5 +20.0 91 +27 +27 душно 1005.7 1002.5
00 20.06 С 5 12 км {туман} н/о +21.8 +19.9 89 +27 +27 душно 1006.0 1002.8 +19.0
01 20.06 С 6 12 км н/о +21.8 +19.9 89 +27 +27 душно 1006.5 1003.3
02 20.06 С 5 7000 м дымка н/о +22.3 +20.0 87 +28 +28 душно 1006.7 1003.5
03 20.06 С 5 8000 м дымка н/о +22.4 +20.0 86 +29 +29 очень
душно
1006.6 1003.4
04 20.06 С 4 7000 м дымка н/о +21.9 +19.8 88 +28 +28 душно 1006.4 1003.2
05 20.06 СВ 4 7000 м дымка н/о +22.0 +20.1 89 +28 +28 душно 1005.9 1002.7
06 20.06 СВ 4 9000 м дымка н/о +21.3 +19.4 89 +26 +26 душно 1005.8 1002.6
07 20.06 СВ 4 8000 м дымка н/о +21.2 +19.7 91 +26 +26 душно 1005.7 1002.5
08 20.06 СВ 3 11 км н/о +21.2 +19.9 92 +26 +26 душно 1006.2 1003.0
09 20.06 СВ 3 8000 м дымка н/о +21.1 +20.1 94 +26 +26 душно 1006.9 1003.6
10 20.06 С 3 8000 м дымка н/о +20.6 +19.8 95 +25 +25 комфорт 1007.5 1004.2
11 20.06 СВ 3 7000 м дымка н/о +20.7 +20.1 96 +26 +26 душно 1008.2 1004.9
12 20.06 СВ 2 9000 м дымка н/о +20.8 +20.2 96 +26 +26 душно 1009.2 1005.9 +23.0
13 20.06 СВ 2 5000 м дымка н/о +20.6 +20.1 97 +26 +26 душно 1009.5 1006.2
15 20.06 ЮВ 1 7000 м дымка н/о +20.5 +20.2 98 +26 +26 душно 1009.4 1006.1
16 20.06 ЮВ 2 6000 м дымка н/о +20.4 +20.1 98 +25 +25 комфорт 1009.4 1006.1
17 20.06 ЮВ 1 7000 м дымка н/о +20.5 +20.0 97 +26 +26 душно 1009.4 1006.1
18 20.06 СВ 3 600 м туман н/о +20.3 +20.1 99 +25 +25 комфорт 1009.2 1005.9
19 20.06 В 3 900 м туман н/о +20.0 +20.0 100 +24 +24 комфорт 1009.6 1006.3
20 20.06 В 3 4800 м в посл. час туман н/о +20.2 +20.2 100 +24 +24 комфорт 1009.6 1006.3
21 20.06 В 3 5000 м дымка {туман} н/о +20.6 +20.4 99 +26 +26 душно 1010.2 1006.9
22 20.06 В 3 9000 м дымка н/о +20.6 +20.1 97 +25 +25 комфорт 1010.6 1007.3
23 20.06 ЮВ 2 15 км н/о +22.0 +20.1 89 +28 +28 душно 1010.7 1007.4
00 21.06 ЮВ 3 20 км {туман} н/о +24.3 +21.4 84 +31 +31 очень
душно
1010.5 1007.3 +19.8
01 21.06 Ю 5 20 км н/о +25.7 +20.5 73 +32 +32 очень
душно
1010.6 1007.4
02 21.06 Ю 5 20 км н/о +26.0 +20.3 71 +32 +32 очень
душно
1010.4 1007.2
03 21.06 Ю 6 20 км н/о +25.7 +20.5 73 +32 +32 очень
душно
1010.1 1006.9
04 21.06 Ю 6 20 км н/о +26.7 +20.5 69 +33 +33 очень
душно
1010.0 1006.8
05 21.06 Ю 6 20 км н/о +26.4 +21.0 72 +33 +33 очень
душно
1009.4 1006.2
06 21.06 Ю 6 20 км н/о +25.5 +20.3 73 +31 +31 очень
душно
1009.6 1006.4
07 21.06 Ю 8 20 км н/о +24.9 +19.7 73 +30 +30 душно 1009.4 1006.2
08 21.06 Ю 6 20 км н/о +24.5 +20.2 77 +30 +30 очень
душно
1009.3 1006.1
09 21.06 Ю 7 20 км н/о +23.7 +19.9 79 +29 +29 душно 1009.5 1006.3
10 21.06 Ю 5 20 км н/о +23.1 +19.9 82 +30 +30 очень
душно
1009.9 1006.7
11 21.06 Ю 4 20 км н/о +22.8 +19.8 83 +29 +29 очень
душно
1010.1 1006.9
12 21.06 Ю 5 20 км н/о +22.5 +20.1 86 +29 +29 очень
душно
1010.3 1007.1 +26.8
13 21.06 Ю 5 20 км н/о +22.3 +20.0 87 +28 +28 душно 1010.5 1007.3
15 21.06 Ю 6 20 км н/о +21.9 +18.9 83 +27 +27 душно 1009.7 1006.4
16 21.06 Ю 5 20 км н/о +21.9 +19.1 84 +27 +27 душно 1009.2 1006.0
17 21.06 Ю 4 20 км н/о +21.7 +19.5 87 +27 +27 душно 1008.7 1005.5
18 21.06 ЮВ 5 20 км н/о +21.7 +19.8 89 +27 +27 душно 1008.3 1005.1
19 21.06 ЮВ 5 20 км н/о +21.6 +20.1 91 +27 +27 душно 1008.2 1005.0
20 21.06 ЮВ 4 20 км н/о +21.4 +20.1 92 +27 +27 душно 1008.0 1004.7
21 21.06 ЮВ 4 20 км н/о +21.7 +20.4 92 +27 +27 душно 1008.0 1004.8
22 21.06 ЮВ 5 20 км н/о +22.4 +20.1 87 +29 +29 очень
душно
1007.7 1004.5
23 21.06 ЮВ 4 20 км н/о +22.8 +20.3 86 +30 +30 очень
душно
1007.2 1004.0
00 22.06 ЮВ 4 20 км слаб. дождь н/о +23.1 +20.3 84 +30 +30 очень
душно
1006.9 1003.7 +21.2 0.0
01 22.06 ЮВ 6 20 км в посл. час дождь н/о +24.1 +20.4 80 +30 +30 очень
душно
1006.1 1002.9
02 22.06 ЮВ 6 20 км слаб. дождь н/о +23.3 +20.6 85 +31 +31 очень
душно
1005.8 1002.6
03 22.06 В 8 3300 м слаб. дождь н/о +21.5 +20.7 95 +27 +27 душно 1005.1 1001.9
04 22.06 В 5 2400 м слаб. дождь н/о +21.1 +20.8 98 +26 +26 душно 1004.5 1001.3
05 22.06 ЮВ 6 2900 м дождь н/о +20.6 +20.3 98 +25 +25 комфорт 1003.7 1000.5
06 22.06 В 4 5000 м слаб. дождь н/о +20.8 +20.6 99 +26 +26 душно 1003.0 999.8 10
07 22.06 В 5 17 км слаб. дождь н/о +20.9 +19.9 94 +26 +26 душно 1002.5 999.3
08 22.06 СВ 5 20 км слаб. дождь н/о +20.8 +20.0 95 +25 +25 комфорт 1002.0 998.8
09 22.06 СВ 6 13 км слаб. дождь н/о +20.6 +20.1 97 +25 +25 комфорт 1001.8 998.6
10 22.06 СВ 7 2800 м слаб. дождь н/о +20.5 +20.3 99 +25 +25 комфорт 1001.7 998.5
11 22.06 С 8 20 км в посл. час дождь н/о +20.4 +20.2 99 +24 +24 комфорт 1001.9 998.7
12 22.06 С 9 20 км слаб. дождь н/о +20.6 +20.4 99 +25 +25 комфорт 1002.0 998.8 +24.5 11
13 22.06 С 7 20 км в посл. час дождь н/о +20.5 +20.2 98 +25 +25 комфорт 1002.0 998.8
14 22.06 С 8 18 км н/о +20.4 +20.1 98 +24 +24 комфорт 1001.7 998.5
15 22.06 С 9 14 км {дождь} н/о +20.5 +20.3 99 +24 +24 комфорт 1001.7 998.5
16 22.06 С 8 11 км н/о +20.4 +20.2 99 +24 +24 комфорт 1002.1 998.9
17 22.06 СЗ 8 14 км н/о +20.5 +20.3 99 +24 +24 комфорт 1002.3 999.1
18 22.06 С 8 15 км в посл. час дождь н/о +20.3 +20.0 98 +24 +24 комфорт 1002.8 999.6 0.0
19 22.06 С 8 20 км н/о +20.2 +19.7 97 +23 +23 комфорт 1003.4 1000.1
20 22.06 СЗ 5 20 км н/о +20.3 +19.1 93 +24 +24 комфорт 1004.0 1000.7
21 22.06 СЗ 5 20 км н/о +20.5 +19.2 92 +24 +24 комфорт 1004.6 1001.3
22 22.06 С 5 20 км н/о +20.8 +19.3 91 +25 +25 комфорт 1005.5 1002.2
23 22.06 С 4 20 км н/о +20.8 +19.5 92 +26 +26 душно 1006.0 1002.7
00 23.06 СВ 4 20 км н/о +20.9 +19.4 91 +26 +26 душно 1005.7 1002.4 +20.1 0.0
01 23.06 С 5 20 км н/о +21.5 +19.8 90 +27 +27 душно 1006.1 1002.9
02 23.06 С 4 20 км н/о +21.3 +19.4 89 +26 +26 душно 1006.3 1003.1
03 23.06 СВ 5 20 км н/о +20.3 +18.6 90 +24 +24 комфорт 1006.1 1002.8
04 23.06 СВ 6 20 км н/о +20.3 +18.8 91 +24 +24 комфорт 1005.1 1001.8
05 23.06 СВ 5 20 км слаб. дождь н/о +20.5 +19.0 91 +24 +24 комфорт 1005.5 1002.2
06 23.06 СВ 4 20 км слаб. дождь н/о +20.2 +19.0 93 +24 +24 комфорт 1005.9 1002.6 0.0
07 23.06 СВ 6 20 км в посл. час дождь н/о +20.6 +19.3 92 +25 +25 комфорт 1005.4 1002.1
08 23.06 СВ 5 20 км н/о +20.6 +19.1 91 +25 +25 комфорт 1005.4 1002.1
09 23.06 СВ 6 20 км {дождь} н/о +20.5 +19.2 92 +24 +24 комфорт 1005.6 1002.3
10 23.06 С 7 20 км н/о +20.2 +19.2 94 +23 +23 комфорт 1005.8 1002.5
11 23.06 СВ 6 20 км н/о +20.1 +18.8 92 +23 +23 комфорт 1007.0 1003.7
12 23.06 С 6 20 км {дождь} н/о +20.2 +19.0 93 +24 +24 комфорт 1008.0 1004.7 +21.8 0.0
13 23.06 С 6 20 км н/о +20.1 +19.1 94 +23 +23 комфорт 1008.3 1005.0
14 23.06 С 6 20 км н/о +19.9 +19.3 96 +23 +23 комфорт 1008.5 1005.2
15 23.06 С 6 20 км н/о +19.8 +19.3 97 +23 +23 комфорт 1008.1 1004.8
16 23.06 С 6 20 км н/о +19.7 +19.1 96 +22 +22 комфорт 1008.3 1005.0
17 23.06 С 5 17 км н/о +19.6 +19.1 97 +22 +22 комфорт 1008.2 1004.9
18 23.06 С 7 7000 м слаб. дождь н/о +19.6 +19.1 97 +22 +22 комфорт 1008.6 1005.3 0.0
19 23.06 СВ 8 10 км слаб. дождь н/о +19.6 +19.1 97 +22 +22 комфорт 1008.1 1004.8
20 23.06 СВ 8 10 км слаб. дождь н/о +19.6 +19.1 97 +22 +22 комфорт 1008.1 1004.8
21 23.06 СВ 10 8000 м слаб. дождь н/о +19.2 +18.7 97 +20 +20 1008.1 1004.8
22 23.06 СВ 9 5000 м слаб. дождь н/о +19.2 +18.6 96 +20 +20 1009.6 1006.3
23 23.06 СВ 7 6000 м слаб. дождь н/о +19.3 +18.7 96 +21 +21 комфорт 1010.3 1007.0
00 24.06 СВ 11 14 км слаб. дождь н/о +19.3 +18.7 96 +20 +20 1007.3 1004.0 +19.0 12
01 24.06 СВ 10 20 км в посл. час дождь н/о +20.0 +18.7 92 +22 +22 комфорт 1008.2 1004.9
02 24.06 С 11 20 км н/о +19.9 +18.4 91 +22 +22 комфорт 1008.2 1004.9
03 24.06 С 11 14 км слаб. дождь н/о +19.7 +18.4 92 +21 +21 комфорт 1009.3 1006.0
04 24.06 С 10 3700 м слаб. дождь н/о +19.1 +18.6 97 +20 +20 1009.7 1006.4
05 24.06 С 11 3800 м слаб. дождь н/о +18.5 +18.3 99 +18 +18 1010.2 1006.9
06 24.06 С 10 10 км слаб. дождь н/о +18.7 +18.1 96 +19 +19 1010.5 1007.2 4
07 24.06 С 9 7000 м слаб. дождь н/о +18.7 +18.1 96 +19 +19 1010.8 1007.5
08 24.06 С 9 15 км слаб. дождь н/о +18.7 +18.1 96 +19 +19 1011.3 1008.0
09 24.06 С 9 20 км в посл. час дождь н/о +18.7 +17.7 94 +19 +19 1011.9 1008.6
10 24.06 С 7 20 км н/о +18.8 +17.7 93 +19 +19 1012.6 1009.3
11 24.06 С 7 20 км н/о +18.8 +17.5 92 +19 +19 1013.9 1010.6
12 24.06 С 6 20 км {дождь} н/о +18.8 +17.3 91 +20 +20 1013.6 1010.3 +20.2 6
13 24.06 С 6 20 км н/о +19.0 +17.9 93 +20 +20 1014.2 1010.9
14 24.06 С 4 20 км н/о +18.6 +17.5 93 +19 +19 1015.0 1011.7
15 24.06 С 4 20 км н/о +18.2 +17.2 94 +18 +18 1014.7 1011.4
16 24.06 С 3 20 км н/о +18.1 +17.1 94 +19 +19 1014.6 1011.3
17 24.06 С 5 20 км н/о +18.4 +17.4 94 +19 +19 1015.0 1011.7
18 24.06 С 4 20 км н/о +18.7 +17.6 93 +20 +20 1015.8 1012.5
19 24.06 СВ 2 20 км н/о +19.1 +17.6 91 +22 +22 комфорт 1016.3 1013.0
20 24.06 СВ 2 20 км н/о +19.3 +17.5 89 +22 +22 комфорт 1017.0 1013.7
21 24.06 СВ 2 20 км н/о +19.7 +17.3 86 +23 +23 комфорт 1017.5 1014.2
22 24.06 В 2 20 км н/о +19.8 +17.4 86 +23 +23 комфорт 1017.9 1014.6
23 24.06 СВ 2 20 км н/о +21.3 +17.9 81 +25 +25 комфорт 1018.0 1014.7
00 25.06 СВ 3 20 км н/о +21.2 +18.0 82 +25 +25 комфорт 1017.9 1014.6 +18.0
01 25.06 СВ 3 20 км н/о +22.2 +17.4 74 +27 +27 душно 1018.0 1014.7
02 25.06 СВ 4 20 км н/о +22.6 +17.5 73 +28 +28 душно 1018.2 1014.9
03 25.06 СВ 4 20 км н/о +22.9 +17.8 73 +28 +28 душно 1018.0 1014.7
05 25.06 ЮВ 4 20 км н/о +23.0 +17.7 72 +28 +28 душно 1017.7 1014.4
06 25.06 ЮВ 4 20 км н/о +23.8 +18.0 70 +28 +28 душно 1017.9 1014.6
07 25.06 ЮВ 4 20 км н/о +23.7 +18.1 71 +28 +28 душно 1017.6 1014.3
08 25.06 ЮВ 4 20 км н/о +23.1 +18.2 74 +29 +29 очень
душно
1017.5 1014.2
09 25.06 Ю 5 20 км н/о +22.7 +18.7 78 +28 +28 душно 1017.6 1014.3
10 25.06 Ю 3 20 км н/о +22.3 +18.9 81 +28 +28 душно 1017.8 1014.5
11 25.06 Ю 3 20 км н/о +21.9 +18.5 81 +27 +27 душно 1017.9 1014.6

 

Местоположение метеостанции Тёси (Япония): широта 35.73 долгота 140.85 высота над уровнем моря 28 м.

В архиве по умолчанию представлена погода в Тёси за последнюю неделю. Архивные данные за месяц целиком и за предыдущие месяцы, начиная с января 2011 года, Вы можете получить, выбрав интересующий диапазон дат из раскрывающегося списка и нажав кнопку "Ввод!".


*Определитесь, кто Вы:
робот инопланетянин человек

Внимание! Время в таблицах - всемирное. Для получения местного времени необходимо прибавить поправку, которая равна 9 ч.

Смотрите также архив погоды в соседних городах и на ближайших метеорологических станциях:

Погода в Тибе (Япония) (69 км)
Погода в Мито (Япония) (80 км)
Погода в Кацууре (Япония) (81 км)
Погода в Токио (Япония) (99 км)
Погода в Иокогаме (Япония) (114 км)
Погода в Татеяме (Япония) (123 км)
Погода в Уцуномии (Япония) (127 км)
Погода в Онахаме (Япония) (136 км)
Погода в Кумугае (Япония) (140 км)
Погода в Чичибу (Япония) (164 км)

Пояснения к столбцам:

Ветер - указаны скорость ветра в м/с - средняя за 10 мин, порывы в срок и между сроками (в фигурных скобках) и направление, откуда дует ветер: С - северный, СВ - северо-восточный, В - восточный, ЮВ - юго-восточный, Ю - южный, ЮЗ - юго-западный, З - западный, СЗ - северо-западный.
Видимость - горизонтальная дальность видимости в метрах или километрах. При видимости от 1 до 10 км при отсутствии осадков обычно наблюдается дымка, при ухудшении видимости до 1 км и менее - туман. В сухую погоду видимость может ухудшаться дымом, пылью или мглою.
Явления - указаны атмосферные явления, наблюдавшиеся в срок или в последний час перед сроком; фигурными скобками обозначены явления, наблюдавшиеся между сроками (за 1-3 часа до срока); квадратными скобками обозначены град или гололедные отложения с указанием их диаметра в мм.
Облачность - указаны через наклонную черту общая и нижняя облачность в баллах и высота нижней границы облаков в метрах; квадратными скобками обозначены формы облаков: Ci - перистые, Cs - перисто-слоистые, Cc - перисто-кучевые, Ac - высококучевые, As - высокослоистые, Sc - слоисто-кучевые, Ns - слоисто-дождевые, Cu - кучевые, Cb - кучево-дождевые. Подробнее классификацию облаков см. в Атласе облаков (PDF).
T - Температура воздуха - температура, измеренная на высоте 2 м над землей.
Td - Температура точки росы - температура, при понижении до которой содержащийся в воздухе водяной пар достигнет насыщения.
f - Относительная влажность воздуха - влажноcть воздуха, измеренная на высоте 2 м над землей.
Te - Эффективная температура - температура, которую ощущает одетый по сезону человек в тени. Характеристика душности погоды. При расчете учитывается влияние влажности воздуха и скорости ветра на теплоощущения человека.
Tes - Эффективная температура на солнце - температура, которую ощущает человек, с поправкой на солнечный нагрев. Характеристика знойности погоды. Зависит от высоты солнца над горизонтом, облачности и скорости ветра. Ночью, в пасмурную погоду, а также при ветре 12 м/с и более поправка равна нулю.
P - Атмосферное давление - приведенное к уровню моря атмосферное давление.
Po - Атмосферное давление - измеренное на уровне метеостанции атмосферное давление.
Tmin - Минимальная температура - минимум температуры воздуха на высоте 2 м над землей.
Tmax - Максимальная температура - максимум температуры воздуха на высоте 2 м над землей.
R - Количество осадков - Количество выпавших осадков за период времени, мм. При наведении курсора мыши на число - период времени, за который выпало указанное количество осадков.
R24 - Количество осадков - Количество выпавших осадков за 24 часа, мм.
S - Снежный покров - Высота снежного покрова, см. При наведении курсора мыши на число - состояние снежного покрова и степень покрытия местности в баллах.